Location: Linton
(52.0940°N, 0.2850°E)
Time: 18:33:25
(UTC+00:00)

ISS - Pass Details

Date: 16 November 2017
Orbit: 402 x 407 km, 51.6° (Epoch: 24 November)

Event Time Altitude Azimuth Distance (km) Brightness Sun altitude
Exits shadow 04:38:07 15° 149° (SSE) 1,171 -1.2 -24.7°
Drops below altitude 10° 04:38:54 10° 142° (SE) 1,451 -0.6 -24.6°
Sets 04:41:05 0° 132° (SE) 2,308 0.7 -24.3°
